Location: *
(23.5860°S, 65.4036°W)
Time: 00:25:38
(UTC+00:00)

S3M - Pass Details

Date: 25 August 2019
Orbit: 948 x 1005 km, 83.0° (Epoch: 17 September)

Event Time Altitude Azimuth Distance (km) Brightness Sun altitude
Rises 23:24:31 0° 179° (S) 3,755 7.0 -18.1°
Reaches altitude 10° 23:27:08 10° 174° (S) 2,799 6.3 -18.7°
Maximum altitude 23:33:27 56° 96° (E) 1,188 4.1 -20.1°
Drops below altitude 10° 23:39:38 10° 19° (NNE) 2,755 6.2 -21.5°
Sets 23:42:11 0° 15° (NNE) 3,690 6.9 -22.1°
